Regional Weather Roundup
Issued by NWS

Home | Current Version | Previous Version | Text Only | Print | Product List | Glossary Off
Versions: 1 2 3 4 5 6 7 8 9 10 11 12 13 14 15 16 17 18 19 20 21 22 23 24 25 26 27 28 29 30 31 32 33 34 35 36 37 38 39 40 41 42 43 44 45 46 47 48 49 50

000
ASUS45 KTFX 261819
RWRMT
MONTANA HOURLY WEATHER ROUNDUP
NATIONAL WEATHER SERVICE GREAT FALLS MT
1119 AM MST THU FEB 26 2015

NOTE: "FAIR" INDICATES FEW OR NO CLOUDS BELOW 12000 FEET WITH NO
SIGNIFICANT WEATHER AND/OR OBSTRUCTIONS TO VISIBILITY.

* THESE STATIONS ARE NOT UNDER NWS QUALITY CONTROL. THEY DO NOT
   REPORT WEATHER SUCH AS PRECIPITATION OR FOG.

MTZ001>007-043-261900-
WEST OF THE DIVIDE
CITY           SKY/WX    TMP DP  RH WIND       PRES   REMARKS
KALISPELL      SUNNY     30  12  47 NE6       30.19F WCI  24
MISSOULA       SUNNY     28  12  51 SE16      30.18F WCI  16
BUTTE          CLOUDY    19  10  68 CALM      30.08F
MULLAN PASS    CLOUDY    21  19  92 VRB5      30.01S WCI  14
* ANACONDA     SUNNY     16  10  77 NE6        N/A   WCI   7
* ESSEX        N/A       19   4  52 SE11       N/A   WCI   7
* EUREKA APT   PTCLDY    34  12  40 SE5       30.19F WCI  29
* HAMILTON APT PTCLDY    30  14  51 N5        30.12F WCI  25
* LIBBY APT    SUNNY     36  19  50 NW3       30.18F
* LINCOLN      N/A       14   0  53 NE10G15    N/A   WCI   1
* LOOKOUT PASS N/A       29  21  72 S2         N/A
* POLSON       N/A       29  16  58 N2         N/A
* RONAN APT    SUNNY     28  21  75 N6         N/A   WCI  21
* SEELEY LAKE  N/A       27  13  55 NW1        N/A
* THOMP F APT  SUNNY     23  10  57 NW9G19     N/A   WCI  13
$$

MTZ008-052>055-261900-
SOUTHWEST MONTANA
CITY           SKY/WX    TMP DP  RH WIND       PRES   REMARKS
BOZEMAN        CLOUDY    18   9  68 S3        30.20S
DILLON         CLOUDY    19  12  74 NE9       30.09S WCI   8
* W YELLOWSTON SUNNY     20   6  54 NE3        N/A
* THREE FORKS  SUNNY     18  16  92 N/A        N/A
* BOULDER HILL N/A        9   4  80 N9         N/A   WCI  -4
* MONIDA PASS  N/A       18  14  84 N6         N/A   WCI  10
* RAYNOLDS PAS N/A        8   7  96 N9         N/A   WCI  -5
* WHITEHALL    N/A       22  12  65 E9G15      N/A   WCI  12
* WISE RIVER   N/A       22   9  57 SE11       N/A   WCI  11
$$

MTZ009>010-012-014-046-048-049-054-261900-
EAST SLOPES AND CENTRAL MONTANA
CITY           SKY/WX    TMP DP  RH WIND       PRES   REMARKS
CUT BANK       CLOUDY     9   3  76 SE13      30.30F WCI  -7
GREAT FALLS    CLOUDY    12   7  80 VRB6      30.32F WCI   2
HELENA         CLOUDY    18   7  62 N7        30.26S WCI   9
MALMSTROM AFB  LGT SNOW   9   9 100 N6        30.36S WCI  -1
* CONRAD       SUNNY      9   1  70 E9         N/A   WCI  -4
* DEARBORN     N/A       10   4  76 VRB11      N/A   WCI  -4
* EAST GLACIER N/A        1  -3  83 SE6        N/A   WCI -11
* MONARCH      N/A        7   1  76 SE6        N/A   WCI  -4
* PENDROY      N/A        6   4  91 S10        N/A   WCI  -9
* ROGERS PASS  N/A       10   4  76 SW2        N/A
* SWEET GRASS  N/A        7   5  91 S16G21     N/A   WCI -11
* WHITE SULPH  N/A       14   0  53 NE7G13     N/A   WCI   4
$$

MTZ011-013-016-021-035-040-045-047-050-051-261900-
NORTH CENTRAL MONTANA
CITY           SKY/WX    TMP DP  RH WIND       PRES   REMARKS
HAVRE          SUNNY     12   3  67 NE13      30.46F WCI  -3
LEWISTOWN      CLOUDY    10   1  67 E9        30.31S WCI  -3
* N BAR RANCH  HAZE       7   1  76 E9        30.31F WCI  -6
* CHINOOK      SUNNY      5  -2  72 E10       30.52F WCI -10
* FORT BENTON  SUNNY     14   3  61 E12       30.43F
* CHESTER      N/A       10   0  64 SE4G9      N/A
* DENTON       N/A       15   5  64 E3         N/A
* GEYSER       N/A        8   4  84 NE9        N/A   WCI  -5
* JUDITH GAP   N/A        6   3  87 SE12       N/A   WCI -10
* LOMA         N/A       14   4  64 E12        N/A
$$

MTZ017>020-022>027-061-062-261900-
NORTHEAST MONTANA
CITY           SKY/WX    TMP DP  RH WIND       PRES   REMARKS
GLASGOW        SUNNY      3 -11  51 SW3       30.56F
GLENDIVE       SUNNY      7  -6  55 N5        30.55F WCI  -2
JORDAN         SUNNY      5  -2  72 VRB3      30.52S
SIDNEY         SUNNY      5  -6  60 CALM      30.62F
WOLF POINT     SUNNY      7  -9  47 SW6       30.61F WCI  -4
* BEAVER HILL  N/A        1  -7  69 NW5G11     N/A   WCI  -9
* CIRCLE       N/A       10  -3  55 N/A        N/A
* NAVAJO       N/A        4  -8  57 W6         N/A   WCI  -7
* PLENTYWOOD A SUNNY      0  -8  68 N6        30.57S WCI -12
* POPLAR APT   SUNNY      7  -8  50 S3        30.61F
* SACO         N/A        4  -7  60 S3         N/A
$$

MTZ028>042-056>058-261900-
SOUTHCENTRAL AND SOUTHEAST MONTANA
CITY           SKY/WX    TMP DP  RH WIND       PRES   REMARKS
BAKER          SUNNY      3  -4  72 NW6       30.49R WCI  -8
BILLINGS       PTSUNNY   10   1  67 E10       30.38S WCI  -4
LIVINGSTON     CLOUDY    10   1  67 E16       30.23F WCI  -7
MILES CITY     SUNNY      3  -2  79 CALM      30.52F
* BIG TIMBER A SUNNY      9   3  76 E13       30.28F WCI  -7
* FORSYTH APT  SUNNY      7   0  73 E5        30.50F WCI  -2
* LAUREL APT   PTCLDY    10   0  64 NE9        N/A   WCI  -3
* ROUNDUP APT  PTCLDY    12  -2  53 N/A        N/A
* ALZADA       N/A        2  -3  79 NW4        N/A
* HYSHAM       N/A       11  -2  55 NE4G9      N/A
* LAME DEER    N/A        0  -4  83 N2         N/A
* REED POINT   N/A       11   6  80 E10        N/A   WCI  -2
* ROSCOE HILL  N/A        5  -1  76 NE6        N/A   WCI  -6
$$

REGIONAL REPORTS...DAKOTAS
CITY           SKY/WX    TMP DP  RH WIND       PRES   REMARKS
WILLISTON      SUNNY      1  -9  62 W3        30.60S
DICKINSON      SUNNY      3  -6  66 NW8       30.48S WCI -10
BEACH          SUNNY      3  -4  72 NW10      30.51S WCI -12
CROSBY         SUNNY     -2  -9  72 NW12      30.59F WCI -20
TIOGA          SUNNY     -2  -9  72 NW9       30.57S WCI -18
WATFORD CITY   SUNNY      0  -9  65 W8        30.56S WCI -14
BISMARCK       SUNNY      3  -9  57 NW10      30.59S WCI -12
GRAND FORKS    SUNNY      3  -9  57 NW8       30.57S WCI -10
FARGO          SUNNY      1  -9  62 NW17      30.57S WCI -19
BUFFALO SD     SUNNY      3  -8  60 NW9       30.39R WCI -11
RAPID CITY     SUNNY      3  -2  79 N16       30.42S WCI -16
$$

REGIONAL REPORTS...WYOMING/IDAHO/WASHINGTON
CITY           SKY/WX    TMP DP  RH WIND       PRES   REMARKS
GILLETTE       HAZE       7  -2  66 NE7       30.31F VSB 3    WCI  -5
SHERIDAN       CLOUDY    10   0  64 NE3       30.35S
CODY           CLOUDY    10   7  88 NE14      30.19S WCI  -6
YELLOWSTONE LA SUNNY      9   0  66 VRB3      29.97F
SALMON         CLOUDY    34  19  54 CALM      30.05F
MULLAN PASS    CLOUDY    21  19  92 VRB5      30.01S WCI  14
SAND POINT     CLOUDY    41  25  53 NE7       30.14S
SPOKANE        PTSUNNY   36  27  70 E6        30.10F WCI  31
$$

REGIONAL REPORTS...ALBERTA
CITY           SKY/WX    TMP DP  RH WIND       PRES   REMARKS
CALGARY        N/A       10   5  80 S16       30.22F WCI  -7
LETHBRIDGE     LGT SNOW  14   9  80 S9        30.34F WCI   2
MEDICINE HAT   N/A        7  -4  60 SE5       30.48F WCI  -2
EDMONTON       SNOW       5  -2  72 S14       30.30F WCI -12
WATERTON GATE  N/A       12   5  73 N2         N/A
CARDSTON       N/A       12   7  80 S6         N/A   WCI   2
MILK RIVER     N/A       10   5  80 S15G21     N/A   WCI  -7
$$

REGIONAL REPORTS...SASKATCHEWAN
CITY           SKY/WX    TMP DP  RH WIND       PRES   REMARKS
SWIFT CURRENT  SUNNY      1  -2  87 S7        30.48S WCI -12
MOOSE JAW      N/A       -6 -13  71 NW3       30.61S
REGINA         N/A      -11 -17  74 W5        30.60S WCI -23
VAL MARIE      N/A        7  -2  66 S6         N/A   WCI  -4
ASSINIBOIA     N/A       -2 -11  65 W7         N/A   WCI -15
CORONACH       N/A        5  -4  66 NW2        N/A

$$



USA.gov is the U.S. government's official web portal to all federal, state and local government web resources and services.